Prestwick, United Kingdom

9:42 AM BST on March 27, 2017 (GMT +0100)
Prestwick

Weather History for EGPK - March, 2013

Change the Weather History Date:

Saturday, March 16, 2013

  Actual Average Record
Temperature  
Mean Temperature 38 °F -  
Max Temperature 41 °F 50 °F 59 °F (2005)
Min Temperature 35 °F 38 °F 28 °F (2001)
Degree Days  
Heating Degree Days 27    
Moisture  
Dew Point 35 °F    
Average Humidity 91    
Maximum Humidity 100    
Minimum Humidity 81    
Precipitation  
Precipitation 0.00 in - - ()
Sea Level Pressure  
Sea Level Pressure 29.28 in    
Wind  
Wind Speed 5 mph ()    
Max Wind Speed 12 mph    
Max Gust Speed -    
Visibility 5.4 miles    
Events Rain    
Averages and records for this station are not official NWS values.
T = Trace of Precipitation, MM = Missing Value Source: Averaged Metar Reports

Daily Weather History Graph

Daily Weather History Graph

Search for Another Location

Airport or City:

Trip Planner

Search our weather history database for the weather conditions in past years. The results will help you decide how hot, cold, wet, or windy it might be!

Date:

Astronomy

Mar. 16, 2013 Rise Set
Actual Time 6:30 AM GMT 6:24 PM GMT
Civil Twilight 5:54 AM GMT 7:00 PM GMT
Nautical Twilight 5:11 AM GMT 7:44 PM GMT
Astronomical Twilight 4:26 AM GMT 8:29 PM GMT
Moon 7:59 AM GMT (3/16) No Moon Set
Length of Visible Light 13h 06m
Length of Day
11h 53m
Waxing Crescent, 21% of the Moon is Illuminated
Mar 16
Waxing Crescent
Mar 19
First Quarter
Mar 27
Full
Apr 3
Last Quarter
Apr 10
New

Hourly Weather History & Observations

Time (GMT) Temp. Windchill Dew Point Humidity Pressure Visibility Wind Dir Wind Speed Gust Speed Precip Events Conditions
12:50 AM 37.4 °F 33.8 °F 33.8 °F 87% 29.36 in 6.2 mi East 4.6 mph - N/A   Partly Cloudy
1:50 AM 35.6 °F 29.2 °F 33.8 °F 93% 29.36 in 6.2 mi East 8.1 mph - N/A   Partly Cloudy
2:50 AM 37.4 °F 32.1 °F 35.6 °F 93% 29.36 in 6.2 mi East 6.9 mph - N/A Rain Light Rain
3:50 AM 35.6 °F 32.8 °F 33.8 °F 93% 29.33 in 6.2 mi East 3.5 mph - N/A   Partly Cloudy
4:50 AM 37.4 °F 33.8 °F 35.6 °F 93% 29.33 in 6.2 mi ENE 4.6 mph - N/A   Scattered Clouds
5:50 AM 35.6 °F 31.7 °F 33.8 °F 93% 29.33 in 6.2 mi East 4.6 mph - N/A Rain Light Rain
6:20 AM 35.6 °F 31.7 °F 33.8 °F 93% 29.33 in 6.2 mi ENE 4.6 mph - N/A Rain Light Rain
6:50 AM 35.6 °F 29.9 °F 33.8 °F 93% 29.30 in 6.2 mi North 6.9 mph - N/A Rain Light Rain
7:20 AM 35.6 °F 29.9 °F 33.8 °F 93% 29.30 in 6.2 mi NNE 6.9 mph - N/A Rain Light Rain
7:50 AM 35.6 °F 32.8 °F 33.8 °F 93% 29.30 in 5.6 mi North 3.5 mph - N/A Rain Light Rain
8:20 AM 37.4 °F 32.1 °F 35.6 °F 93% 29.30 in 6.2 mi North 6.9 mph - N/A   Mostly Cloudy
8:50 AM 37.4 °F 31.4 °F 35.6 °F 93% 29.30 in 6.2 mi NNE 8.1 mph - N/A   Mostly Cloudy
9:20 AM 37.4 °F 31.4 °F 35.6 °F 93% 29.30 in 6.2 mi NNE 8.1 mph - N/A   Mostly Cloudy
9:50 AM 37.4 °F 32.8 °F 35.6 °F 93% 29.30 in 5.0 mi NNE 5.8 mph - N/A Rain Light Rain
10:20 AM 37.4 °F 32.8 °F 35.6 °F 93% 29.27 in 5.0 mi North 5.8 mph - N/A Rain Light Rain
10:50 AM 39.2 °F 35.0 °F 37.4 °F 93% 29.27 in 5.0 mi North 5.8 mph - N/A Rain Light Rain
11:20 AM 39.2 °F 34.2 °F 37.4 °F 93% 29.27 in 6.2 mi NNE 6.9 mph - N/A Rain Light Rain
11:50 AM 39.2 °F 34.2 °F 35.6 °F 87% 29.27 in 6.2 mi NE 6.9 mph - N/A   Mostly Cloudy
12:20 PM 41.0 °F 35.8 °F 35.6 °F 81% 29.27 in 6.2 mi NNE 8.1 mph - N/A   Mostly Cloudy
12:50 PM 41.0 °F 34.3 °F 35.6 °F 81% 29.27 in 6.2 mi NNE 11.5 mph - N/A   Mostly Cloudy
1:20 PM 39.2 °F 32.5 °F 35.6 °F 87% 29.27 in 6.2 mi NNE 10.4 mph - N/A Rain Light Rain
1:50 PM 39.2 °F 33.6 °F 35.6 °F 87% 29.27 in 6.2 mi NNE 8.1 mph - N/A Rain Light Rain
2:20 PM 39.2 °F 35.0 °F 35.6 °F 87% 29.27 in 5.6 mi NNE 5.8 mph - N/A Rain Light Rain
2:50 PM 37.4 °F - 35.6 °F 93% 29.27 in 5.6 mi North 2.3 mph - N/A Rain Light Rain
3:20 PM 39.2 °F 35.9 °F 35.6 °F 87% 29.27 in 5.6 mi NNE 4.6 mph - N/A Rain Light Rain
3:50 PM 39.2 °F - 35.6 °F 87% 29.24 in 5.6 mi Calm Calm - N/A Rain Light Rain
4:20 PM 39.2 °F - 37.4 °F 93% 29.24 in 5.6 mi Calm Calm - N/A Rain Light Rain
4:50 PM 39.2 °F - 35.6 °F 87% 29.24 in 5.6 mi Calm Calm - N/A Rain Light Rain
5:20 PM 39.2 °F - 35.6 °F 87% 29.24 in 5.6 mi Calm Calm - N/A Rain Light Rain
5:50 PM 37.4 °F 34.9 °F 35.6 °F 93% 29.24 in 5.6 mi WSW 3.5 mph - N/A Rain Light Rain
6:20 PM 37.4 °F 33.8 °F 35.6 °F 93% 29.24 in 4.3 mi South 4.6 mph - N/A Rain Light Rain
6:50 PM 37.4 °F - 35.6 °F 93% 29.24 in 4.3 mi Calm Calm - N/A Rain Light Rain
7:20 PM 37.4 °F 32.8 °F 35.6 °F 93% 29.24 in 4.3 mi South 5.8 mph - N/A Rain Light Rain
7:50 PM 35.6 °F - 35.6 °F 100% 29.24 in 4.3 mi SSW 2.3 mph - N/A Rain Light Rain
8:20 PM 37.4 °F - 35.6 °F 93% 29.24 in 4.3 mi Calm Calm - N/A Rain Light Rain
8:50 PM 37.4 °F - 35.6 °F 93% 29.24 in 4.3 mi Calm Calm - N/A Rain Light Rain
9:20 PM 37.4 °F 33.8 °F 35.6 °F 93% 29.24 in 4.3 mi South 4.6 mph - N/A Rain Light Rain
9:50 PM 37.4 °F 32.8 °F 35.6 °F 93% 29.24 in 4.3 mi South 5.8 mph - N/A Rain Light Rain
10:20 PM 37.4 °F 33.8 °F 35.6 °F 93% 29.24 in 4.3 mi South 4.6 mph - N/A Rain Light Rain
10:50 PM 37.4 °F 33.8 °F 35.6 °F 93% 29.24 in 4.3 mi SSE 4.6 mph - N/A Rain Light Rain
11:20 PM 37.4 °F 32.8 °F 35.6 °F 93% 29.24 in 4.3 mi SE 5.8 mph - N/A Rain Light Rain
11:50 PM 37.4 °F 34.9 °F 35.6 °F 93% 29.24 in 4.3 mi SE 3.5 mph - N/A Rain Light Rain